Weather in Verkhniy Karachan

Russia / Voronezh Oblast     51°24′30″N   41°46′08″E
temp.,
°C
wind,
m/s
gust,
m/s
humid.,
%
clouds,
%
prec.,
mm/h
press.,
hPa
HPBL,
m
26 february, fri
fri2600:00+1wnw4898100 0.0 1016257
03:00+1w4799100 0.1 1017153
06:00+1wnw3899100 0.0 1016214
09:00+1wsw4899100 0.3 1015199
12:00+2wsw510100100 0.6 1014187
15:00+3wsw715100100 0.6 1013390
18:00+3w71699100 0.3 1011433
21:00+2wsw614100100 0.6 1010352
27 february, sat
sat2700:00+2wnw61398100 0.0 1008404
03:00+1w61292100 0.0 1009406
06:00+1w61294100 0.0 1007515
09:00+1w61293100 0.0 1007578
12:00+1w611100100 0.0 1006539
15:00+1w71296100 0.1 1006662
18:000wnw71396100 0.1 1006635
21:00−1nnw7119399 0.3 1008626
28 february, sun
sun2800:00−7nnw599145 0.0 1010491
03:00−9nnw599062 0.0 1012481
06:00−10nnw489157 0.0 1014429
09:00−10nnw589064 0.0 1015443
12:00−9nnw468791 0.0 1016521
15:00−8nnw468795 0.0 1017523
18:00−9nnw389196 0.0 1018366
21:00−11nnw379381 0.0 1020247
1 march, mon
mon100:00−11n239412 0.0 102182
03:00−12n23947 0.0 102359
06:00−12n22950 0.0 102447
09:00−11n23930 0.0 1026187
12:00−9n238443 0.0 1027434
15:00−8n238268 0.0 1028474
18:00−10n129175 0.0 102921
21:00−11nw119143 0.0 103021
2 march, tue
tue200:00−10w22930 0.0 103021
03:00−9wsw349520 0.0 102974
06:00−8wsw41094100 0.0 1027225
09:00−5wsw61293100 0.0 1024421
12:00−1wsw81392100 0.0 1021588
15:00−1w81493100 0.3 1018659
18:000w81498100 1.2 1015645
21:000nw71393100 1.9 1016608